User: anonymous   Login
Location: Montreal
(45.5087°N, 73.5540°W)
Time: 21:53:13
(UTC-04:00)
Language:

UKube-1 - Orbit

View from above orbital plane
View from above orbital plane
View from above satellite
View from above satellite

Ground track
Ground track

The orbit data is extracted from the following two-line orbital elements,

1 40074U 14037F   19112.38671578  .00000306  00000-0  43886-4 0  9991
2 40074  98.4288 271.1162 0006057  49.8925 310.2819 14.84012763259153
Epoch (UTC): 22 April 2019 09:16:52
Eccentricity: 0.0006057
inclination: 98.4288°
perigee height: 612 km
apogee height: 621 km
right ascension of ascending node: 271.1162°
argument of perigee: 49.8925°
revolutions per day: 14.84012763
mean anomaly at epoch: 310.2819°
orbit number at epoch: 25915

The dashed part of the orbit path shows where the satellite is in the earth's shadow,  

DLR